Other Surface Observations
Issued by NWS

Home | Current Version | Previous Version | Text Only | Print | Product List | Glossary On
Versions: 1 2 3 4 5 6 7 8 9 10 11 12 13 14 15 16 17 18 19 20 21 22 23 24 25 26 27 28 29 30 31 32 33 34 35 36 37 38 39 40 41 42 43 44 45 46 47 48 49 50
749
SXUS52 KTAE 060018
OSOTAE
OSOTAE
North Florida/South Alabama/Southwest Georgia Weather Roundup
National Weather Service Tallahassee Florida
700 PM EST MON DEC 05 2016

Note: "fair" indicates few or no clouds below 12,000 feet with no
significant weather and/or obstructions to visibility.

!FLZ017-115-028-034-025-060100
...North Florida...

CITY           SKY/WX    TMP DP  RH WIND       PRES   REMARKS
TALLAHASSEE    CLOUDY    73  73 100 S17G31    29.79S
APALACHICOLA   HVY RAIN  73  73 100 S10       29.79F
PERRY          CLOUDY    74  72  91 S12G18    29.85S
CROSS CITY     CLOUDY    73  70  88 S16G24    29.86F
JACKSONVILLE   CLOUDY    75  70  84 SE6       29.87R
$$

!FLZ112-006-005-002-011-060100
...Florida Panhandle...

CITY           SKY/WX    TMP DP  RH WIND       PRES   REMARKS
MARIANNA       LGT RAIN  65  65 100 NE3       29.75S
BONIFAY        NOT AVBL
PANAMA CITY NW LGT RAIN  75  73  93 S20G28    29.75S
TYNDALL AFB    CLOUDY    72  72 100 S17       29.76S
TYND DRONE APT NOT AVBL
DE FUNIAK SPR  NOT AVBL
EGLIN AFB      TSTM      69  67  94 N6        29.74R FOG
DESTIN         LGT RAIN  77  75  93 S12G25    29.73R
HURLBURT       TSTM      66  64  94 N9        29.73R VSB 1
CRESTVIEW      TSTM      63  62  97 E6        29.75F FOG
PENSACOLA      LGT RAIN  66  64  93 NW9       29.76R FOG
$$

!ALZ063-066-060100
...South Alabama...

CITY           SKY/WX    TMP DP  RH WIND       PRES   REMARKS
DOTHAN         RAIN      59  59 100 NE9       29.83R
OZARK CAIRNS   TSTM      61  61 100 NE8       29.79R FOG
FT RUCKER HELI TSTM      60  59  96 N8        29.80R
RUCKER HELI 3  NOT AVBL
RUCKER HELI 2  TSTM      61  32  33 N8        29.81R
FLORALA APT    TSTM      62  60  93 E6        29.79R
ANDALUSIA      TSTM      63  58  83 NE8       29.76F
TROY           RAIN      56  55  97 E9        29.83F
EUFALA         RAIN      57  55  93 NE5       29.84R FOG
MOBILE         CLOUDY    59  59 100 E10       29.75F
$$

!GAZ120>161-060100
...Southwest and South Central Georgia...

CITY           SKY/WX    TMP DP  RH WIND       PRES   REMARKS
THOMASVILLE    TSTM      72  72 100 S8        29.81S
BAINBRIDGE     HVY RAIN  61  61 100 NE14G24   29.77F
MOODY AFB      LGT RAIN  72  72 100 SE7       29.83
VALDOSTA       LGT RAIN  73  73 100 S10       29.84S
MOULTRIE       RAIN      64  64 100 E3        29.83F
BLAKELY        CLOUDY    61  59  94 CALM      29.84R
ALBANY         HVY RAIN  60  60 100 N7        29.88R FOG
TIFTON           N/A     58  58 100 E7          N/A
FITZGERALD     NOT AVBL
CORDELE        NOT AVBL
AMERICUS       NOT AVBL
HOMERVILLE     TSTM      66  66 100 E6        29.87S
$$

!GMZ750-755-770-775-060100
...Coastal and Buoy Obs...

STATION/POSITION TIME  TEMP    WIND        PRES    VSBY  WAVE
                       AIR SEA DIR/SP/G                  HT/PER
                 (UTC) (F)     (DEG/KT/KT) (MB)    (MI)  (FT/S)
KEATON BEACH     0000   69     160/ 15/ 17 1010.4R
CEDAR KEY        0000   72     180/ 19/ 23 1011.8R
C TOWER          0000   74     190/ 18/ 20 1009.9R
APALACHICOLA BUO 2350   77 75  180/ 19/ 23 1009.3F         6/ 7
PANAMA CITY BUOY 2250   76 76              1008.1          5/ 6
MOBILE BUOY      0000   70 75   10/ 12/ 16 1007.0
ORANGE BCH AL BU 2350   67 70   10/ 12/ 14 1007.1R         4/ 7
$$




USA.gov is the U.S. government's official web portal to all federal, state and local government web resources and services.